GW4718 Weather Reports


time (UTC)temp
C
wind
direction
speed
KPH
gust
KPH
rain 1hr
cm
rain 24hr
cm
rain mn
cm
humidity
%
barometer
mb
20260503192449 13 210 6.4 14.5 0.00 0.00 0.00 33 1018.0
20260503191944 13 83 3.2 3.2 0.00 0.00 0.00 37 1018.2
20260503191443 14 205 4.8 11.3 0.00 0.00 0.00 30 1018.0
20260503190938 13 348 3.2 3.2 0.00 0.00 0.00 34 1018.3
20260503190436 13 219 0.0 3.2 0.00 0.00 0.00 29 1018.3
20260503185933 13 245 3.2 9.7 0.00 0.00 0.00 30 1018.8
20260503185429 12 20 0.0 3.2 0.00 0.00 0.00 34 1018.6
20260503184928 13 334 6.4 9.7 0.00 0.00 0.00 32 1018.8
20260503184425 13 0 4.8 6.4 0.00 0.00 0.00 30 1018.9
20260503183922 13 143 0.0 4.8 0.00 0.00 0.00 42 1018.9
20260503183418 13 242 6.4 6.4 0.00 0.00 0.00 37 1019.0
20260503182916 12 188 0.0 4.8 0.00 0.00 0.00 38 1019.0
20260503182415 11 207 9.7 11.3 0.00 0.00 0.00 38 1019.0
20260503181911 12 241 11.3 27.4 0.00 0.00 0.00 38 1019.1
20260503181408 12 248 8.0 12.9 0.00 0.00 0.00 38 1018.9
20260503180904 12 7 1.6 9.7 0.00 0.00 0.00 33 1019.0
20260503180403 12 277 6.4 9.7 0.00 0.00 0.00 38 1019.4
20260503175859 11 199 12.9 22.5 0.00 0.00 0.00 33 1019.1
20260503175357 11 269 4.8 14.5 0.00 0.00 0.00 34 1019.2
20260503174857 11 84 4.8 12.9 0.00 0.00 0.00 39 1019.1
20260503174356 12 194 9.7 12.9 0.00 0.00 0.00 35 1019.4
20260503173851 11 160 1.6 3.2 0.00 0.00 0.00 34 1019.2
20260503173347 11 307 8.0 22.5 0.00 0.00 0.00 32 1019.5
20260503172844 11 217 6.4 14.5 0.00 0.00 0.00 42 1019.4
20260503172342 11 306 4.8 4.8 0.00 0.00 0.00 33 1019.5
20260503171837 11 117 3.2 11.3 0.00 0.00 0.00 35 1019.6
20260503171335 11 199 4.8 12.9 0.00 0.00 0.00 34 1019.8
20260503170832 10 49 6.4 11.3 0.00 0.00 0.00 38 1019.6
20260503170328 10 73 6.4 9.7 0.00 0.00 0.00 41 1019.6
20260503150720 7 215 4.8 9.7 0.00 0.00 0.00 47 1020.8
20260503150217 8 190 12.9 17.7 0.00 0.00 0.00 46 1020.8
20260503140141 6 25 1.6 12.9 0.00 0.00 0.00 52 1020.7
20260503131110 5 226 4.8 9.7 0.00 0.00 0.00 55 1020.9
20260503130608 5 68 6.4 17.7 0.00 0.00 0.00 55 1020.6
20260503130106 5 71 3.2 14.5 0.00 0.00 0.00 54 1020.7
20260503110458 2 211 3.2 6.4 0.00 0.00 0.00 65 1019.1
20260503090344 3 57 1.6 6.4 0.00 0.00 0.00 66 1018.1
20260503081311 3 85 8.0 11.3 0.00 0.00 0.00 65 1017.6
20260503080807 3 209 4.8 11.3 0.00 0.00 0.00 63 1017.8
20260503080305 3 20 0.0 1.6 0.00 0.00 0.00 66 1017.6
20260503072741 3 243 3.2 14.5 0.00 0.00 0.00 65 1017.1
20260503072238 3 178 1.6 3.2 0.00 0.00 0.00 67 1017.2
20260503071734 3 37 4.8 9.7 0.00 0.00 0.00 65 1017.1
20260503071231 3 56 4.8 11.3 0.00 0.00 0.00 65 1017.1
20260503070727 3 344 3.2 4.8 0.00 0.00 0.00 65 1016.9
20260503070226 3 113 12.9 20.9 0.00 0.00 0.00 63 1016.9
20260503060145 4 53 4.8 6.4 0.00 0.00 0.00 61 1017.1
20260503054632 4 91 1.6 9.7 0.00 0.00 0.00 63 1017.1
20260503054129 5 80 6.4 11.3 0.00 0.00 0.00 59 1017.1
20260503053628 5 331 3.2 9.7 0.00 0.00 0.00 63 1017.2
20260503053126 5 19 3.2 4.8 0.00 0.00 0.00 65 1017.1
20260503052622 5 20 0.0 0.0 0.00 0.00 0.00 65 1017.2
20260503052118 5 54 0.0 0.0 0.00 0.00 0.00 65 1017.0
20260503051613 5 101 3.2 3.2 0.00 0.00 0.00 64 1016.9
20260503051111 5 228 1.6 11.3 0.00 0.00 0.00 63 1017.1
20260503050608 5 299 0.0 1.6 0.00 0.00 0.00 65 1017.1
20260503050105 5 35 4.8 9.7 0.00 0.00 0.00 65 1017.0
20260503045601 5 48 1.6 4.8 0.00 0.00 0.00 70 1017.1
20260503045059 5 343 4.8 6.4 0.00 0.00 0.00 68 1017.2
20260503044555 5 12 0.0 3.2 0.00 0.00 0.00 66 1017.1
20260503044053 5 190 4.8 4.8 0.00 0.00 0.00 71 1017.1
20260503043549 4 128 3.2 4.8 0.00 0.00 0.00 68 1017.1
20260503043045 5 237 0.0 1.6 0.00 0.00 0.00 75 1017.1
20260503042542 5 47 0.0 4.8 0.00 0.00 0.00 64 1017.1
20260503042039 5 48 3.2 4.8 0.00 0.00 0.00 68 1017.1
20260503041536 5 162 1.6 4.8 0.00 0.00 0.00 68 1017.1
20260503041034 5 5 3.2 4.8 0.00 0.00 0.00 68 1017.0
20260503040531 5 29 0.0 0.0 0.00 0.00 0.00 67 1017.3
20260503040028 5 57 4.8 6.4 0.00 0.00 0.00 67 1017.1
20260503035525 5 46 4.8 4.8 0.00 0.00 0.00 68 1017.1
20260503035022 5 54 3.2 4.8 0.00 0.00 0.00 70 1017.1
20260503034519 5 43 0.0 0.0 0.00 0.00 0.00 67 1017.3
20260503034016 5 116 4.8 4.8 0.00 0.00 0.00 66 1017.3
20260503033513 5 59 1.6 3.2 0.00 0.00 0.00 70 1017.2
20260503033011 5 52 1.6 3.2 0.00 0.00 0.00 70 1017.3
20260503032510 5 87 0.0 3.2 0.00 0.00 0.00 67 1017.3
20260503032008 5 73 3.2 4.8 0.00 0.00 0.00 68 1017.2
20260503031506 5 203 0.0 0.0 0.00 0.00 0.00 66 1017.2
20260503031002 5 195 1.6 3.2 0.00 0.00 0.00 67 1017.2
20260503030458 5 230 3.2 6.4 0.00 0.00 0.00 64 1017.3
20260503025955 6 257 0.0 4.8 0.00 0.00 0.00 64 1017.3
20260503025452 6 67 3.2 4.8 0.00 0.00 0.00 62 1017.3
20260503024949 5 221 3.2 6.4 0.00 0.00 0.00 61 1017.4
20260503024445 5 123 0.0 0.0 0.00 0.00 0.00 66 1017.3
20260503023943 6 286 0.0 6.4 0.00 0.00 0.00 63 1017.4
20260503023440 6 283 3.2 3.2 0.00 0.00 0.00 59 1017.6
20260503022937 6 214 1.6 4.8 0.00 0.00 0.00 58 1017.6
20260503022432 6 247 3.2 9.7 0.00 0.00 0.00 59 1017.3
20260503021928 6 220 8.0 9.7 0.00 0.00 0.00 57 1017.2
20260503021424 5 289 1.6 4.8 0.00 0.00 0.00 59 1017.5
20260503020922 5 46 0.0 0.0 0.00 0.00 0.00 64 1017.1
20260503020419 6 128 0.0 0.0 0.00 0.00 0.00 64 1017.2
20260503015915 6 136 0.0 0.0 0.00 0.00 0.00 64 1017.0
20260503015412 6 108 3.2 4.8 0.00 0.00 0.00 62 1016.8
20260503014908 6 155 0.0 3.2 0.00 0.00 0.00 58 1017.0
20260503014405 6 95 6.4 6.4 0.00 0.00 0.00 54 1017.1
20260503013903 6 36 3.2 3.2 0.00 0.00 0.00 55 1017.1
20260503013400 6 6 0.0 0.0 0.00 0.00 0.00 52 1017.0
20260503012857 6 278 0.0 4.8 0.00 0.00 0.00 51 1017.1
20260503012354 6 339 0.0 1.6 0.00 0.00 0.00 55 1016.8
20260503011851 7 246 1.6 4.8 0.00 0.00 0.00 51 1016.7
20260503011348 7 218 4.8 9.7 0.00 0.00 0.00 52 1016.9
20260503010844 7 69 4.8 6.4 0.00 0.00 0.00 51 1016.9
20260503010342 7 18 4.8 4.8 0.00 0.00 0.00 52 1016.5
20260503005838 7 240 0.0 0.0 0.00 0.00 0.00 49 1016.7
20260503005336 7 161 1.6 3.2 0.00 0.00 0.00 49 1016.3
20260503004833 7 210 4.8 4.8 0.00 0.00 0.00 49 1016.1
20260503004330 7 186 6.4 9.7 0.00 0.00 0.00 47 1016.1
20260503003827 6 152 1.6 3.2 0.00 0.00 0.00 52 1016.1
20260503003324 7 114 1.6 3.2 0.00 0.00 0.00 56 1016.0
20260503002821 7 105 1.6 3.2 0.00 0.00 0.00 53 1016.1
20260503002318 7 86 0.0 0.0 0.00 0.00 0.00 51 1015.9
20260503001814 7 184 3.2 4.8 0.00 0.00 0.00 47 1016.1
20260503001310 7 241 0.0 3.2 0.00 0.00 0.00 45 1016.1
20260503000808 7 267 3.2 11.3 0.00 0.00 0.00 46 1016.0
20260503000305 7 180 1.6 4.8 0.00 0.00 0.00 50 1015.9
20260502235802 7 104 1.6 4.8 0.00 0.00 0.00 45 1016.0
20260502235300 8 238 0.0 3.2 0.00 0.00 0.00 48 1015.9
20260502234756 8 234 1.6 1.6 0.00 0.00 0.00 46 1015.7
20260502234253 8 111 8.0 9.7 0.00 0.00 0.00 49 1015.6
20260502233749 8 191 6.4 9.7 0.00 0.00 0.00 48 1015.6
20260502233246 8 114 1.6 4.8 0.00 0.00 0.00 47 1015.8
20260502232742 8 135 1.6 3.2 0.00 0.00 0.00 45 1015.6
20260502232239 8 205 3.2 6.4 0.00 0.00 0.00 45 1015.8
20260502231736 8 201 4.8 6.4 0.00 0.00 0.00 47 1015.7
20260502231234 8 222 9.7 11.3 0.00 0.00 0.00 46 1015.7
20260502230732 8 198 11.3 16.1 0.00 0.00 0.00 45 1015.5
20260502230230 8 284 8.0 11.3 0.00 0.00 0.00 42 1015.6
20260502225726 8 137 1.6 11.3 0.00 0.00 0.00 41 1015.5
20260502225218 8 232 0.0 3.2 0.00 0.00 0.00 43 1015.5
20260502224714 8 155 1.6 3.2 0.00 0.00 0.00 43 1015.3
20260502224211 8 220 0.0 3.2 0.00 0.00 0.00 42 1015.5
20260502223709 8 181 4.8 12.9 0.00 0.00 0.00 45 1015.5
20260502223207 8 34 0.0 6.4 0.00 0.00 0.00 42 1015.5
20260502222704 8 65 1.6 4.8 0.00 0.00 0.00 48 1015.4
20260502222201 8 247 8.0 11.3 0.00 0.00 0.00 43 1015.3
20260502221656 8 235 6.4 9.7 0.00 0.00 0.00 44 1015.3
20260502221153 8 110 1.6 14.5 0.00 0.00 0.00 42 1015.2
20260502220649 8 265 3.2 14.5 0.00 0.00 0.00 44 1015.3
20260502220146 9 158 6.4 11.3 0.00 0.00 0.00 44 1015.2
20260502215643 9 175 0.0 0.0 0.00 0.00 0.00 43 1015.3
20260502215139 9 171 6.4 9.7 0.00 0.00 0.00 42 1015.1
20260502214636 9 189 1.6 3.2 0.00 0.00 0.00 42 1015.2
20260502214128 9 285 0.0 4.8 0.00 0.00 0.00 41 1015.2
20260502213626 9 350 3.2 6.4 0.00 0.00 0.00 42 1015.1
20260502213123 9 169 6.4 6.4 0.00 0.00 0.00 45 1015.3
20260502212621 9 217 3.2 6.4 0.00 0.00 0.00 44 1015.2
20260502212120 8 165 8.0 16.1 0.00 0.00 0.00 46 1015.3
20260502211614 8 191 12.9 16.1 0.00 0.00 0.00 44 1015.1
20260502211111 9 251 8.0 17.7 0.00 0.00 0.00 45 1015.1
20260502210609 9 44 3.2 6.4 0.00 0.00 0.00 44 1015.0
20260502210106 9 172 3.2 11.3 0.00 0.00 0.00 42 1015.1
20260502205603 10 255 4.8 11.3 0.00 0.00 0.00 44 1015.1
20260502205100 9 283 3.2 6.4 0.00 0.00 0.00 40 1015.0
20260502204556 9 285 4.8 12.9 0.00 0.00 0.00 42 1015.0
20260502204054 9 102 1.6 4.8 0.00 0.00 0.00 44 1014.8
20260502203551 9 179 0.0 6.4 0.00 0.00 0.00 46 1015.2
20260502203048 9 239 6.4 9.7 0.00 0.00 0.00 46 1015.3
20260502202543 9 207 4.8 6.4 0.00 0.00 0.00 45 1015.2
20260502202042 9 197 6.4 11.3 0.00 0.00 0.00 46 1015.5
20260502201537 9 245 4.8 11.3 0.00 0.00 0.00 44 1015.4
20260502201034 9 90 3.2 4.8 0.00 0.00 0.00 48 1015.3
20260502200530 9 297 1.6 4.8 0.00 0.00 0.00 43 1015.5
20260502200028 9 227 3.2 11.3 0.00 0.00 0.00 42 1015.4
20260502195525 9 188 0.0 1.6 0.00 0.00 0.00 45 1015.5
20260502195021 9 306 4.8 9.7 0.00 0.00 0.00 44 1015.5
20260502194518 9 189 6.4 12.9 0.00 0.00 0.00 45 1015.6
20260502194014 9 203 6.4 11.3 0.00 0.00 0.00 47 1015.6
20260502193512 8 270 8.0 14.5 0.00 0.00 0.00 45 1015.8
20260502193008 9 249 1.6 6.4 0.00 0.00 0.00 45 1015.6